Location: Newark
(52.3500°N, 175.9667°E)
Time: 00:44:31
(UTC+00:00)

Vanguard 1 - Pass Details

Date: 25 April 2021
Orbit: 649 x 3834 km, 34.2° (Epoch: 04 May)

Event Time Altitude Azimuth Distance (km) Brightness Sun altitude
Rises 07:22:07 0° 274° (W) 7,088 16.3 0.5°
Reaches altitude 10° 07:28:03 10° 263° (W) 6,447 15.4 -0.4°
Maximum altitude 07:42:45 23° 220° (SW) 5,815 14.2 -2.4°
Drops below altitude 10° 07:58:08 10° 178° (S) 6,681 14.0 -4.5°
Sets 08:04:38 0° 165° (SSE) 7,381 14.1 -5.4°
